Weather History for Fort Yukon, AK

Change the Weather History Date:

Friday, May 11, 2012

  Actual Average Record
Temperature  
Mean Temperature 48 °F -  
Max Temperature 60 °F 50 °F 64 °F (1999)
Min Temperature 35 °F 29 °F 30 °F (2001)
Degree Days  
Heating Degree Days 18    
Moisture  
Dew Point 25 °F    
Average Humidity 43    
Maximum Humidity 65    
Minimum Humidity 21    
Precipitation  
Precipitation 0.00 in - - ()
Sea Level Pressure  
Sea Level Pressure 29.39 in    
Wind  
Wind Speed 4 mph (East)    
Max Wind Speed 12 mph    
Max Gust Speed -    
Visibility 10 miles    
Events      
Averages and records for this station are not official NWS values.
T = Trace of Precipitation, MM = Missing Value Source: NWS Daily Summary

Daily Weather History Graph

Daily Weather History Graph

Search for Another Location

Airport:

Trip Planner

Search our weather history database for the weather conditions in past years. The results will help you decide how hot, cold, wet, or windy it might be!

Date:

Astronomy

May. 11, 2012 Rise Set
Actual Time 4:08 AM AKDT 11:09 PM AKDT
Civil Twilight 2:09 AM AKDT 1:04 AM AKDT
Nautical Twilight Sun does not rise Sun does not rise
Astronomical Twilight Sun does not rise Sun does not rise
Moon 3:16 AM AKDT (5/11) 10:35 AM AKDT (5/11)
Length of Visible Light 22h 55m
Length of Day
19h 01m
Waning Gibbous, 61% of the Moon is Illuminated
May 11
Waning Gibbous
May 12
Last Quarter
May 20
New
May 28
First Quarter
Jun 4
Full

Hourly Weather History & Observations

Time (AKDT) Temp. Windchill Dew Point Humidity Pressure Visibility Wind Dir Wind Speed Gust Speed Precip Events Conditions
12:16 AM 39.2 °F - 23.0 °F 52% 29.38 in 10.0 mi Calm Calm - N/A   Partly Cloudy
12:36 AM 37.4 °F 34.9 °F 24.8 °F 60% 29.38 in 10.0 mi NNE 3.5 mph - N/A   Partly Cloudy
12:56 AM 37.4 °F - 19.4 °F 48% 29.38 in 10.0 mi Calm Calm - N/A   Clear
1:16 AM 35.6 °F - 23.0 °F 60% 29.38 in 10.0 mi Calm Calm - N/A   Clear
1:36 AM 35.6 °F 31.7 °F 19.4 °F 52% 29.38 in 10.0 mi North 4.6 mph - N/A   Clear
1:56 AM 35.6 °F 30.7 °F 21.2 °F 56% 29.38 in 10.0 mi NNE 5.8 mph - N/A   Clear
2:16 AM 35.6 °F 30.7 °F 21.2 °F 56% 29.38 in 10.0 mi NNE 5.8 mph - N/A   Clear
2:36 AM 35.6 °F 31.7 °F 21.2 °F 56% 29.37 in 10.0 mi NE 4.6 mph - N/A   Clear
2:56 AM 37.4 °F 33.8 °F 21.2 °F 52% 29.37 in 10.0 mi ENE 4.6 mph - N/A   Clear
3:16 AM 37.4 °F 34.9 °F 21.2 °F 52% 29.37 in 10.0 mi NE 3.5 mph - N/A   Clear
3:36 AM 35.6 °F 32.8 °F 23.0 °F 60% 29.37 in 10.0 mi NE 3.5 mph - N/A   Clear
3:56 AM 35.6 °F 31.7 °F 21.2 °F 56% 29.38 in 10.0 mi NNE 4.6 mph - N/A   Clear
4:16 AM 35.6 °F 31.7 °F 21.2 °F 56% 29.37 in 10.0 mi NNE 4.6 mph - N/A   Clear
4:36 AM 35.6 °F 31.7 °F 23.0 °F 60% 29.37 in 10.0 mi NNE 4.6 mph - N/A   Clear
4:56 AM 35.6 °F 32.8 °F 24.8 °F 65% 29.37 in 10.0 mi NE 3.5 mph - N/A   Clear
5:16 AM 35.6 °F 31.7 °F 24.8 °F 65% 29.37 in 10.0 mi NNE 4.6 mph - N/A   Clear
5:36 AM 35.6 °F 31.7 °F 23.0 °F 60% 29.37 in 10.0 mi NNE 4.6 mph - N/A   Clear
5:56 AM 35.6 °F 31.7 °F 24.8 °F 65% 29.37 in 10.0 mi NE 4.6 mph - N/A   Partly Cloudy
6:16 AM 37.4 °F 32.8 °F 24.8 °F 60% 29.37 in 10.0 mi NE 5.8 mph - N/A   Clear
6:36 AM 37.4 °F 32.1 °F 24.8 °F 60% 29.36 in 10.0 mi NNE 6.9 mph - N/A   Partly Cloudy
6:56 AM 37.4 °F 32.1 °F 24.8 °F 60% 29.37 in 10.0 mi NE 6.9 mph - N/A   Mostly Cloudy
7:16 AM 39.2 °F 35.0 °F 24.8 °F 56% 29.37 in 10.0 mi East 5.8 mph - N/A   Mostly Cloudy
7:36 AM 42.8 °F 40.1 °F 24.8 °F 49% 29.37 in 10.0 mi East 4.6 mph - N/A   Mostly Cloudy
7:56 AM 44.6 °F 43.1 °F 24.8 °F 46% 29.37 in 10.0 mi East 3.5 mph - N/A   Overcast
8:16 AM 46.4 °F 44.3 °F 24.8 °F 43% 29.36 in 10.0 mi East 4.6 mph - N/A   Overcast
8:36 AM 46.4 °F 45.2 °F 24.8 °F 43% 29.36 in 10.0 mi East 3.5 mph - N/A   Overcast
8:56 AM 48.2 °F - 24.8 °F 40% 29.37 in 10.0 mi Calm Calm - N/A   Overcast
9:16 AM 48.2 °F - 26.6 °F 43% 29.37 in 10.0 mi East 4.6 mph - N/A   Overcast
9:36 AM 50.0 °F - 26.6 °F 40% 29.37 in 10.0 mi East 4.6 mph - N/A   Overcast
9:56 AM 51.8 °F - 26.6 °F 38% 29.37 in 10.0 mi SE 4.6 mph - N/A   Overcast
10:16 AM 51.8 °F - 26.6 °F 38% 29.36 in 10.0 mi SE 5.8 mph - N/A   Overcast
10:36 AM 53.6 °F - 26.6 °F 35% 29.36 in 10.0 mi ESE 3.5 mph - N/A   Mostly Cloudy
10:56 AM 53.6 °F - 26.6 °F 35% 29.36 in 10.0 mi East 3.5 mph - N/A   Mostly Cloudy
11:16 AM 53.6 °F - 26.6 °F 35% 29.36 in 10.0 mi ESE 3.5 mph - N/A   Overcast
11:36 AM 53.6 °F - 26.6 °F 35% 29.37 in 10.0 mi ESE 5.8 mph - N/A   Overcast
11:56 AM 53.6 °F - 26.6 °F 35% 29.37 in 10.0 mi ESE 4.6 mph - N/A   Overcast
12:16 PM 55.4 °F - 26.6 °F 33% 29.38 in 10.0 mi SE 5.8 mph - N/A   Overcast
12:36 PM 55.4 °F - 26.6 °F 33% 29.38 in 10.0 mi SE 8.1 mph - N/A   Overcast
12:56 PM 55.4 °F - 26.6 °F 33% 29.38 in 10.0 mi South 5.8 mph - N/A   Overcast
1:16 PM 55.4 °F - 24.8 °F 31% 29.38 in 10.0 mi South 8.1 mph - N/A   Overcast
1:36 PM 57.2 °F - 26.6 °F 31% 29.38 in 10.0 mi South 5.8 mph - N/A   Overcast
1:56 PM 55.4 °F - 26.6 °F 33% 29.38 in 10.0 mi South 8.1 mph - N/A   Mostly Cloudy
2:16 PM 55.4 °F - 26.6 °F 33% 29.38 in 10.0 mi South 10.4 mph - N/A   Mostly Cloudy
2:36 PM 55.4 °F - 26.6 °F 33% 29.39 in 10.0 mi SSE 6.9 mph - N/A   Mostly Cloudy
2:56 PM 55.4 °F - 26.6 °F 33% 29.39 in 10.0 mi SSE 5.8 mph - N/A   Mostly Cloudy
3:16 PM 55.4 °F - 26.6 °F 33% 29.39 in 10.0 mi SSE 8.1 mph - N/A   Scattered Clouds
3:36 PM 55.4 °F - 26.6 °F 33% 29.39 in 10.0 mi SSE 5.8 mph - N/A   Mostly Cloudy
3:56 PM 55.4 °F - 26.6 °F 33% 29.38 in 10.0 mi SE 8.1 mph - N/A   Mostly Cloudy
4:16 PM 55.4 °F - 26.6 °F 33% 29.39 in 10.0 mi SE 5.8 mph - N/A   Mostly Cloudy
4:36 PM 57.2 °F - 24.8 °F 29% 29.38 in 10.0 mi SSE 4.6 mph - N/A   Mostly Cloudy
4:56 PM 57.2 °F - 24.8 °F 29% 29.39 in 10.0 mi SE 9.2 mph - N/A   Clear
5:16 PM 57.2 °F - 24.8 °F 29% 29.38 in 10.0 mi SSE 5.8 mph - N/A   Scattered Clouds
5:36 PM 60.8 °F - 24.8 °F 25% 29.38 in 10.0 mi SE 6.9 mph - N/A   Scattered Clouds
5:56 PM 60.8 °F - 24.8 °F 25% 29.38 in 10.0 mi ESE 6.9 mph - N/A   Scattered Clouds
6:16 PM 57.2 °F - 24.8 °F 29% 29.38 in 10.0 mi ESE 5.8 mph - N/A   Scattered Clouds
6:36 PM 57.2 °F - 21.2 °F 25% 29.38 in 10.0 mi ESE 5.8 mph - N/A   Scattered Clouds
6:56 PM 55.4 °F - 24.8 °F 31% 29.39 in 10.0 mi ESE 5.8 mph - N/A   Scattered Clouds
7:16 PM 57.2 °F - 19.4 °F 23% 29.39 in 10.0 mi South 4.6 mph - N/A   Mostly Cloudy
7:36 PM 59.0 °F - 19.4 °F 22% 29.40 in 10.0 mi WSW 4.6 mph - N/A   Overcast
7:56 PM 55.4 °F - 32.0 °F 41% 29.40 in 10.0 mi ENE 11.5 mph - N/A   Overcast
8:16 PM 55.4 °F - 28.4 °F 36% 29.42 in 10.0 mi NE 4.6 mph - N/A   Mostly Cloudy
8:36 PM 55.4 °F - 28.4 °F 36% 29.42 in 10.0 mi Calm Calm - N/A   Partly Cloudy
8:56 PM 55.4 °F - 28.4 °F 36% 29.43 in 10.0 mi East 3.5 mph - N/A   Partly Cloudy
9:16 PM 55.4 °F - 28.4 °F 36% 29.43 in 10.0 mi East 8.1 mph - N/A   Partly Cloudy
9:36 PM 53.6 °F - 28.4 °F 38% 29.44 in 10.0 mi East 4.6 mph - N/A   Clear
9:56 PM 51.8 °F - 30.2 °F 44% 29.45 in 9.0 mi Calm Calm - N/A   Partly Cloudy
10:16 PM 51.8 °F - 30.2 °F 44% 29.46 in 10.0 mi Calm Calm - N/A   Scattered Clouds
10:36 PM 48.2 °F - 32.0 °F 54% 29.46 in 10.0 mi NNE 4.6 mph - N/A   Mostly Cloudy
10:56 PM 48.2 °F - 30.2 °F 50% 29.46 in 10.0 mi Calm Calm - N/A   Mostly Cloudy
11:16 PM 44.6 °F - 32.0 °F 61% 29.47 in 10.0 mi Calm Calm - N/A   Scattered Clouds
11:36 PM 44.6 °F - 30.2 °F 57% 29.47 in 8.0 mi Calm Calm - N/A   Clear
11:56 PM 42.8 °F - 30.2 °F 61% 29.48 in 10.0 mi Calm Calm - N/A   Scattered Clouds